EJU62XU LIRN-LIMC

Flight info

Callsign EJU62XU
Flight time 1h 17m
Altitude 34000
Route VEXUV DCT PNZ DCT RIFFI DCT ELVIN DCT TORLI DCT GILIO DCT KARDU DCT IRBAK DCT KALMO DCT MEBUR
Aircraft A320/M-SDE2E3FGHIJ1RWXYZ/LB1

Departure

Time 2026-05-06 13:14
Airport Naples International Airport (LIRN)

Arrival

Time 2026-05-06 14:31
Airport Milan Malpensa International Airport (LIMC)
Time Latitude Longitude Altitude Speed Heading
2026-05-06 12:52 40.87812 14.28044 299 ft 0 kts 140°
2026-05-06 13:06 40.87816 14.28040 296 ft 3 kts 140°
2026-05-06 13:06 40.87837 14.28017 300 ft 4 kts 139°
2026-05-06 13:06 40.87854 14.27992 300 ft 4 kts 116°
2026-05-06 13:06 40.87860 14.27961 297 ft 4 kts 68°
2026-05-06 13:07 40.87854 14.27946 301 ft 1 kts 52°
2026-05-06 13:07 40.87853 14.27945 301 ft 0 kts 52°
2026-05-06 13:08 40.87855 14.27949 300 ft 1 kts 52°
2026-05-06 13:09 40.87872 14.27977 296 ft 7 kts 52°
2026-05-06 13:09 40.87916 14.28052 297 ft 14 kts 51°
2026-05-06 13:09 40.88013 14.28138 293 ft 19 kts 36°
2026-05-06 13:09 40.88062 14.28304 288 ft 21 kts 93°
2026-05-06 13:10 40.88044 14.28500 285 ft 19 kts 99°
2026-05-06 13:10 40.88081 14.28670 282 ft 22 kts 51°
2026-05-06 13:10 40.88182 14.28839 278 ft 25 kts 53°
2026-05-06 13:10 40.88293 14.29035 273 ft 28 kts 53°
2026-05-06 13:11 40.88417 14.29252 267 ft 28 kts 53°
2026-05-06 13:11 40.88531 14.29450 262 ft 27 kts 53°
2026-05-06 13:11 40.88647 14.29651 256 ft 28 kts 53°
2026-05-06 13:11 40.88770 14.29863 250 ft 30 kts 52°
2026-05-06 13:12 40.88888 14.30068 243 ft 22 kts 53°
2026-05-06 13:12 40.88987 14.30239 236 ft 25 kts 51°
2026-05-06 13:12 40.89085 14.30402 230 ft 18 kts 50°
2026-05-06 13:12 40.89182 14.30432 228 ft 15 kts 329°
2026-05-06 13:13 40.89194 14.30333 229 ft 13 kts 243°
2026-05-06 13:13 40.89056 14.30038 240 ft 73 kts 237°
2026-05-06 13:13 40.88673 14.29222 264 ft 133 kts 238°
2026-05-06 13:13 40.88121 14.28044 488 ft 162 kts 237°
2026-05-06 13:14 40.87400 14.26893 1146 ft 160 kts 206°
2026-05-06 13:14 40.86335 14.26458 1719 ft 172 kts 181°
2026-05-06 13:14 40.85087 14.26614 2219 ft 182 kts 174°
2026-05-06 13:14 40.83825 14.26804 2872 ft 183 kts 175°
2026-05-06 13:15 40.82570 14.26981 3463 ft 185 kts 176°
2026-05-06 13:15 40.81283 14.27161 4038 ft 187 kts 176°
2026-05-06 13:15 40.79974 14.27345 4596 ft 192 kts 176°
2026-05-06 13:15 40.78637 14.27534 5168 ft 194 kts 177°
2026-05-06 13:16 40.77282 14.27726 5707 ft 197 kts 177°
2026-05-06 13:16 40.75903 14.27920 6262 ft 201 kts 177°
2026-05-06 13:16 40.74503 14.28115 6798 ft 204 kts 177°
2026-05-06 13:16 40.73084 14.28314 7350 ft 206 kts 177°
2026-05-06 13:17 40.71658 14.28373 7883 ft 205 kts 193°
2026-05-06 13:17 40.70329 14.27746 8334 ft 208 kts 214°
2026-05-06 13:17 40.69148 14.26484 8492 ft 231 kts 223°
2026-05-06 13:17 40.67879 14.25009 8766 ft 255 kts 223°
2026-05-06 13:18 40.66490 14.23406 9192 ft 273 kts 223°
2026-05-06 13:18 40.65039 14.21742 9910 ft 279 kts 223°
2026-05-06 13:18 40.63792 14.19757 10453 ft 291 kts 243°
2026-05-06 13:18 40.63260 14.17114 10721 ft 312 kts 269°
2026-05-06 13:19 40.63482 14.14224 11314 ft 321 kts 276°
2026-05-06 13:19 40.63762 14.11295 12052 ft 324 kts 275°
2026-05-06 13:19 40.64034 14.08338 12813 ft 326 kts 275°
2026-05-06 13:19 40.64298 14.05364 13571 ft 329 kts 275°
2026-05-06 13:20 40.64559 14.02361 14262 ft 331 kts 275°
2026-05-06 13:20 40.64816 13.99374 14898 ft 334 kts 274°
2026-05-06 13:20 40.65078 13.96321 15539 ft 337 kts 274°
2026-05-06 13:20 40.65340 13.93251 16173 ft 339 kts 274°
2026-05-06 13:21 40.65607 13.90148 16799 ft 342 kts 274°
2026-05-06 13:21 40.65876 13.87017 17421 ft 345 kts 274°
2026-05-06 13:21 40.66146 13.83865 18038 ft 349 kts 274°
2026-05-06 13:21 40.66415 13.80671 18582 ft 352 kts 273°
2026-05-06 13:22 40.66686 13.77450 19123 ft 355 kts 273°
2026-05-06 13:22 40.66959 13.74208 19672 ft 357 kts 273°
2026-05-06 13:22 40.67234 13.70946 20228 ft 359 kts 274°
2026-05-06 13:22 40.67510 13.67663 20793 ft 362 kts 274°
2026-05-06 13:23 40.67786 13.64359 21357 ft 364 kts 274°
2026-05-06 13:23 40.68062 13.61035 21944 ft 366 kts 273°
2026-05-06 13:23 40.68339 13.57689 22560 ft 369 kts 274°
2026-05-06 13:23 40.68617 13.54314 23146 ft 371 kts 274°
2026-05-06 13:24 40.68898 13.50929 23674 ft 374 kts 274°
2026-05-06 13:24 40.69179 13.47518 24124 ft 375 kts 273°
2026-05-06 13:24 40.69461 13.44092 24580 ft 376 kts 273°
2026-05-06 13:24 40.69739 13.40704 25013 ft 377 kts 273°
2026-05-06 13:25 40.70026 13.37218 25441 ft 378 kts 273°
2026-05-06 13:25 40.70342 13.33769 25858 ft 381 kts 277°
2026-05-06 13:25 40.71067 13.30389 26262 ft 387 kts 288°
2026-05-06 13:25 40.72324 13.27211 26651 ft 396 kts 298°
2026-05-06 13:26 40.73992 13.24352 27035 ft 401 kts 303°
2026-05-06 13:26 40.75742 13.21476 27413 ft 402 kts 303°
2026-05-06 13:26 40.77492 13.18587 27792 ft 403 kts 302°
2026-05-06 13:26 40.79266 13.15644 28167 ft 405 kts 302°
2026-05-06 13:27 40.80991 13.12770 28546 ft 406 kts 302°
2026-05-06 13:27 40.82746 13.09836 28918 ft 408 kts 302°
2026-05-06 13:27 40.84503 13.06896 29266 ft 409 kts 301°
2026-05-06 13:27 40.86266 13.03946 29606 ft 410 kts 301°
2026-05-06 13:28 40.88036 13.00982 29945 ft 411 kts 301°
2026-05-06 13:28 40.89812 12.98009 30237 ft 413 kts 301°
2026-05-06 13:28 40.91651 12.95079 30502 ft 418 kts 306°
2026-05-06 13:28 40.93691 12.92319 30783 ft 420 kts 307°
2026-05-06 13:29 40.95742 12.89555 31040 ft 421 kts 307°
2026-05-06 13:29 40.97794 12.86786 31286 ft 422 kts 307°
2026-05-06 13:29 40.99850 12.84007 31579 ft 421 kts 307°
2026-05-06 13:29 41.01896 12.81238 31928 ft 420 kts 307°
2026-05-06 13:30 41.03935 12.78476 32275 ft 418 kts 306°
2026-05-06 13:30 41.05968 12.75720 32613 ft 418 kts 306°
2026-05-06 13:30 41.07999 12.72963 32920 ft 418 kts 306°
2026-05-06 13:30 41.09999 12.70238 33208 ft 418 kts 306°
2026-05-06 13:31 41.12023 12.67477 33521 ft 417 kts 306°
2026-05-06 13:31 41.14041 12.64723 33864 ft 415 kts 306°
2026-05-06 13:31 41.16051 12.61982 34000 ft 412 kts 306°
2026-05-06 13:32 41.19984 12.56613 34013 ft 402 kts 305°
2026-05-06 13:32 41.23863 12.51288 34013 ft 400 kts 305°
2026-05-06 13:33 41.27735 12.45976 34010 ft 400 kts 305°
2026-05-06 13:33 41.30957 12.41559 34010 ft 400 kts 305°
2026-05-06 13:34 41.34832 12.36235 34046 ft 400 kts 305°
2026-05-06 13:34 41.38702 12.30921 34033 ft 400 kts 305°
2026-05-06 13:35 41.42566 12.25598 34028 ft 399 kts 305°
2026-05-06 13:35 41.46418 12.20269 34026 ft 399 kts 304°
2026-05-06 13:36 41.50263 12.14928 34012 ft 398 kts 304°
2026-05-06 13:36 41.54087 12.09618 34009 ft 398 kts 304°
2026-05-06 13:37 41.57921 12.04280 34025 ft 398 kts 304°
2026-05-06 13:37 41.61753 11.98926 34004 ft 399 kts 304°
2026-05-06 13:38 41.65602 11.93563 33985 ft 400 kts 304°
2026-05-06 13:38 41.69458 11.88183 33978 ft 400 kts 304°
2026-05-06 13:39 41.73303 11.82795 33975 ft 400 kts 304°
2026-05-06 13:39 41.77154 11.77397 33974 ft 401 kts 304°
2026-05-06 13:40 41.80997 11.71996 33984 ft 400 kts 304°
2026-05-06 13:40 41.84842 11.66580 34010 ft 401 kts 303°
2026-05-06 13:41 41.88682 11.61159 34008 ft 401 kts 303°
2026-05-06 13:41 41.92527 11.55730 33993 ft 401 kts 303°
2026-05-06 13:42 41.96339 11.50328 33984 ft 401 kts 303°
2026-05-06 13:42 42.00178 11.44891 33972 ft 401 kts 303°
2026-05-06 13:43 42.04007 11.39454 33973 ft 400 kts 303°
2026-05-06 13:43 42.07837 11.34002 33977 ft 401 kts 303°
2026-05-06 13:44 42.11668 11.28534 33975 ft 402 kts 303°
2026-05-06 13:44 42.15485 11.23077 33941 ft 403 kts 303°
2026-05-06 13:45 42.19337 11.17568 33937 ft 405 kts 303°
2026-05-06 13:45 42.25130 11.09248 33936 ft 406 kts 303°
2026-05-06 13:46 42.28987 11.03688 33944 ft 406 kts 303°
2026-05-06 13:46 42.32852 10.98119 33934 ft 406 kts 303°
2026-05-06 13:47 42.36946 10.92782 33940 ft 420 kts 314°
2026-05-06 13:47 42.39476 10.90693 33936 ft 433 kts 323°
2026-05-06 13:47 42.42179 10.88901 33941 ft 434 kts 323°
2026-05-06 13:48 42.47605 10.85292 33934 ft 434 kts 323°
2026-05-06 13:48 42.53004 10.81659 33943 ft 434 kts 323°
2026-05-06 13:49 42.58380 10.78021 33935 ft 434 kts 323°
2026-05-06 13:49 42.63789 10.74349 33935 ft 435 kts 323°
2026-05-06 13:50 42.69215 10.70675 33932 ft 435 kts 323°
2026-05-06 13:50 42.74639 10.67000 33946 ft 436 kts 324°
2026-05-06 13:51 42.80035 10.63334 33934 ft 437 kts 324°
2026-05-06 13:51 42.85473 10.59631 33928 ft 437 kts 324°
2026-05-06 13:52 42.90923 10.55909 33952 ft 438 kts 325°
2026-05-06 13:52 42.96378 10.52171 33944 ft 439 kts 325°
2026-05-06 13:53 43.01855 10.48448 33942 ft 441 kts 326°
2026-05-06 13:53 43.07381 10.44784 33941 ft 441 kts 326°
2026-05-06 13:54 43.12904 10.41122 33941 ft 441 kts 326°
2026-05-06 13:54 43.18433 10.37426 33953 ft 442 kts 326°
2026-05-06 13:55 43.23918 10.33731 33941 ft 442 kts 326°
2026-05-06 13:55 43.29438 10.30008 33934 ft 443 kts 326°
2026-05-06 13:56 43.34975 10.26271 33929 ft 443 kts 326°
2026-05-06 13:56 43.40509 10.22530 33937 ft 443 kts 326°
2026-05-06 13:57 43.46046 10.18785 33961 ft 443 kts 326°
2026-05-06 13:57 43.51577 10.15047 33952 ft 443 kts 326°
2026-05-06 13:58 43.57100 10.11281 33941 ft 442 kts 326°
2026-05-06 13:58 43.62608 10.07528 33709 ft 437 kts 325°
2026-05-06 13:59 43.65324 10.05685 33435 ft 433 kts 325°
2026-05-06 13:59 43.68011 10.03856 33164 ft 430 kts 325°
2026-05-06 13:59 43.70653 10.02047 32902 ft 428 kts 324°
2026-05-06 13:59 43.73316 10.00216 32633 ft 426 kts 324°
2026-05-06 14:00 43.75962 9.98391 32372 ft 425 kts 324°
2026-05-06 14:00 43.78605 9.96571 32106 ft 423 kts 324°
2026-05-06 14:00 43.81241 9.94763 31852 ft 422 kts 324°
2026-05-06 14:00 43.83859 9.92965 31607 ft 420 kts 324°
2026-05-06 14:01 43.86473 9.91167 31355 ft 418 kts 324°
2026-05-06 14:01 43.89084 9.89370 31114 ft 417 kts 324°
2026-05-06 14:01 43.91678 9.87579 30859 ft 416 kts 324°
2026-05-06 14:01 43.94263 9.85791 30614 ft 414 kts 324°
2026-05-06 14:02 43.96839 9.84006 30371 ft 413 kts 324°
2026-05-06 14:02 43.99408 9.82224 30160 ft 413 kts 324°
2026-05-06 14:02 44.01979 9.80441 29903 ft 415 kts 324°
2026-05-06 14:02 44.04562 9.78652 29625 ft 414 kts 324°
2026-05-06 14:03 44.07140 9.76868 29348 ft 413 kts 324°
2026-05-06 14:03 44.09705 9.75089 29065 ft 411 kts 324°
2026-05-06 14:03 44.12224 9.73344 28789 ft 409 kts 324°
2026-05-06 14:03 44.14764 9.71582 28512 ft 407 kts 324°
2026-05-06 14:04 44.17292 9.69823 28240 ft 405 kts 324°
2026-05-06 14:04 44.19803 9.68071 27963 ft 403 kts 324°
2026-05-06 14:04 44.22304 9.66323 27698 ft 401 kts 324°
2026-05-06 14:04 44.24794 9.64585 27429 ft 399 kts 324°
2026-05-06 14:05 44.27274 9.62856 27166 ft 397 kts 324°
2026-05-06 14:05 44.29739 9.61137 26892 ft 395 kts 324°
2026-05-06 14:05 44.32168 9.59384 26631 ft 389 kts 320°
2026-05-06 14:05 44.34389 9.57320 26376 ft 382 kts 316°
2026-05-06 14:06 44.36575 9.55210 26131 ft 381 kts 316°
2026-05-06 14:06 44.38757 9.53113 25877 ft 380 kts 316°
2026-05-06 14:06 44.40930 9.51030 25627 ft 379 kts 317°
2026-05-06 14:06 44.43102 9.48950 25372 ft 377 kts 317°
2026-05-06 14:07 44.45265 9.46880 25132 ft 376 kts 317°
2026-05-06 14:07 44.47416 9.44816 24922 ft 374 kts 316°
2026-05-06 14:07 44.49555 9.42758 24680 ft 372 kts 316°
2026-05-06 14:07 44.51679 9.40713 24440 ft 370 kts 316°
2026-05-06 14:08 44.53797 9.38669 24209 ft 369 kts 316°
2026-05-06 14:08 44.55909 9.36630 23966 ft 365 kts 316°
2026-05-06 14:08 44.57993 9.34620 23580 ft 362 kts 316°
2026-05-06 14:08 44.60065 9.32616 23090 ft 361 kts 316°
2026-05-06 14:09 44.62127 9.30618 22665 ft 359 kts 316°
2026-05-06 14:09 44.64176 9.28633 22224 ft 356 kts 316°
2026-05-06 14:09 44.66204 9.26673 21801 ft 351 kts 316°
2026-05-06 14:09 44.68185 9.24754 21401 ft 350 kts 316°
2026-05-06 14:10 44.70185 9.22811 20985 ft 348 kts 317°
2026-05-06 14:10 44.72168 9.20882 20571 ft 345 kts 317°
2026-05-06 14:10 44.74126 9.18964 20171 ft 341 kts 314°
2026-05-06 14:10 44.75853 9.16767 19779 ft 330 kts 303°
2026-05-06 14:11 44.77210 9.14234 19386 ft 318 kts 293°
2026-05-06 14:11 44.78317 9.11565 19032 ft 315 kts 292°
2026-05-06 14:11 44.79418 9.08915 18641 ft 313 kts 292°
2026-05-06 14:11 44.80518 9.06272 18273 ft 312 kts 293°
2026-05-06 14:12 44.81613 9.03638 17881 ft 311 kts 293°
2026-05-06 14:12 44.82704 9.01022 17503 ft 308 kts 293°
2026-05-06 14:12 44.83781 8.98439 17140 ft 305 kts 294°
2026-05-06 14:12 44.84851 8.95869 16790 ft 303 kts 294°
2026-05-06 14:13 44.85913 8.93313 16454 ft 301 kts 294°
2026-05-06 14:13 44.86968 8.90769 16103 ft 299 kts 294°
2026-05-06 14:13 44.88015 8.88240 15761 ft 298 kts 294°
2026-05-06 14:13 44.89058 8.85720 15413 ft 297 kts 294°
2026-05-06 14:14 44.90084 8.83244 15087 ft 295 kts 295°
2026-05-06 14:14 44.91115 8.80744 14753 ft 294 kts 295°
2026-05-06 14:14 44.92139 8.78250 14426 ft 293 kts 295°
2026-05-06 14:14 44.93167 8.75747 13985 ft 297 kts 295°
2026-05-06 14:15 44.94204 8.73222 13593 ft 298 kts 296°
2026-05-06 14:15 44.95245 8.70692 13207 ft 298 kts 296°
2026-05-06 14:15 44.96284 8.68164 12826 ft 296 kts 296°
2026-05-06 14:15 44.97313 8.65662 12480 ft 294 kts 296°
2026-05-06 14:16 44.98343 8.63170 12119 ft 293 kts 297°
2026-05-06 14:16 44.99644 8.60944 11767 ft 297 kts 316°
2026-05-06 14:16 45.01450 8.59498 11436 ft 303 kts 340°
2026-05-06 14:16 45.03518 8.59219 11257 ft 295 kts
2026-05-06 14:17 45.05411 8.60080 11127 ft 280 kts 29°
2026-05-06 14:17 45.06860 8.61760 10799 ft 270 kts 52°
2026-05-06 14:17 45.07765 8.64039 10334 ft 264 kts 75°
2026-05-06 14:17 45.08031 8.66558 9838 ft 257 kts 97°
2026-05-06 14:18 45.07681 8.68991 9289 ft 250 kts 117°
2026-05-06 14:18 45.06807 8.71055 8752 ft 241 kts 136°
2026-05-06 14:18 45.05554 8.72557 8209 ft 234 kts 154°
2026-05-06 14:18 45.04164 8.73724 7634 ft 234 kts 142°
2026-05-06 14:19 45.03160 8.75533 7096 ft 237 kts 117°
2026-05-06 14:19 45.02776 8.77792 6581 ft 239 kts 92°
2026-05-06 14:19 45.03005 8.80105 6078 ft 238 kts 81°
2026-05-06 14:19 45.03330 8.82396 5562 ft 236 kts 81°
2026-05-06 14:20 45.03650 8.84682 5050 ft 241 kts 81°
2026-05-06 14:20 45.04361 8.86814 4807 ft 240 kts 48°
2026-05-06 14:20 45.05735 8.88053 4662 ft 240 kts 13°
2026-05-06 14:20 45.07402 8.88083 4553 ft 243 kts 346°
2026-05-06 14:21 45.09062 8.87632 4424 ft 243 kts 346°
2026-05-06 14:21 45.10724 8.87168 4292 ft 243 kts 345°
2026-05-06 14:21 45.12382 8.86705 4167 ft 243 kts 346°
2026-05-06 14:21 45.14044 8.86244 4067 ft 244 kts 347°
2026-05-06 14:22 45.15692 8.85791 4001 ft 238 kts 348°
2026-05-06 14:22 45.17319 8.85349 4005 ft 238 kts 348°
2026-05-06 14:22 45.18921 8.84918 4004 ft 237 kts 349°
2026-05-06 14:22 45.20546 8.84480 4005 ft 238 kts 348°
2026-05-06 14:23 45.22166 8.84038 4001 ft 237 kts 348°
2026-05-06 14:23 45.23786 8.83595 4000 ft 237 kts 348°
2026-05-06 14:23 45.25408 8.83149 4064 ft 238 kts 348°
2026-05-06 14:23 45.27032 8.82704 4068 ft 237 kts 348°
2026-05-06 14:24 45.28652 8.82261 4072 ft 238 kts 348°
2026-05-06 14:24 45.30278 8.81817 4076 ft 238 kts 348°
2026-05-06 14:24 45.31356 8.81523 4076 ft 238 kts 348°
2026-05-06 14:24 45.32991 8.81291 4080 ft 233 kts 359°
2026-05-06 14:25 45.34556 8.81125 4074 ft 219 kts 351°
2026-05-06 14:25 45.36038 8.80766 4077 ft 214 kts 348°
2026-05-06 14:25 45.37500 8.80367 4080 ft 214 kts 348°
2026-05-06 14:25 45.38956 8.79967 4079 ft 213 kts 348°
2026-05-06 14:26 45.40402 8.79570 4101 ft 205 kts 348°
2026-05-06 14:26 45.41761 8.79199 4084 ft 195 kts 348°
2026-05-06 14:26 45.43079 8.78837 4076 ft 192 kts 348°
2026-05-06 14:26 45.44395 8.78476 4013 ft 192 kts 347°
2026-05-06 14:27 45.45710 8.78115 3859 ft 192 kts 348°
2026-05-06 14:27 45.47010 8.77759 3620 ft 189 kts 348°
2026-05-06 14:27 45.48300 8.77404 3391 ft 188 kts 348°
2026-05-06 14:27 45.49577 8.77054 3146 ft 186 kts 348°
2026-05-06 14:28 45.50828 8.76710 2900 ft 184 kts 349°
2026-05-06 14:28 45.52083 8.76365 2655 ft 183 kts 349°
2026-05-06 14:28 45.53346 8.76017 2410 ft 181 kts 349°
2026-05-06 14:28 45.54555 8.75685 2172 ft 178 kts 350°
2026-05-06 14:29 45.55722 8.75363 1942 ft 161 kts 350°
2026-05-06 14:29 45.56783 8.75070 1699 ft 150 kts 351°
2026-05-06 14:29 45.57788 8.74794 1504 ft 144 kts 350°
2026-05-06 14:29 45.58760 8.74526 1310 ft 140 kts 350°
2026-05-06 14:30 45.59700 8.74267 1115 ft 136 kts 349°
2026-05-06 14:30 45.60628 8.74017 931 ft 134 kts 349°
2026-05-06 14:30 45.61533 8.73760 783 ft 132 kts 348°
2026-05-06 14:30 45.62370 8.73521 743 ft 104 kts 349°
2026-05-06 14:31 45.62912 8.73378 738 ft 55 kts 350°
2026-05-06 14:31 45.63122 8.73265 738 ft 28 kts 323°
2026-05-06 14:31 45.63256 8.73073 740 ft 28 kts 307°
2026-05-06 14:31 45.63351 8.72878 741 ft 10 kts 304°
2026-05-06 14:32 45.63382 8.72814 741 ft 5 kts 304°
2026-05-06 14:32 45.63386 8.72805 741 ft 0 kts 304°
2026-05-06 14:34 45.63396 8.72785 739 ft 6 kts 305°
2026-05-06 14:34 45.63443 8.72719 741 ft 13 kts 326°
2026-05-06 14:34 45.63552 8.72676 741 ft 18 kts 349°
2026-05-06 14:34 45.63690 8.72638 740 ft 22 kts 349°
2026-05-06 14:35 45.63849 8.72595 741 ft 25 kts 349°
2026-05-06 14:35 45.64021 8.72545 741 ft 26 kts 344°
2026-05-06 14:35 45.64203 8.72488 741 ft 27 kts 349°
2026-05-06 14:35 45.64365 8.72440 739 ft 17 kts 348°
2026-05-06 14:36 45.64450 8.72383 740 ft 12 kts 323°
2026-05-06 14:36 45.64506 8.72358 739 ft 6 kts 349°
2026-05-06 14:36 45.64519 8.72355 740 ft 0 kts 348°